"Pseudo-MPEC" for C0FLQG5

Created 2023 Jan 28 14:22:04 UT using Find_Orb

Click here for an explanation of pseudo-MPECs

 
 Astrometry: 
     C0FLQG5* C2023 01 22'h,XDYviien?egVC.UR56X%k%DlSMX4;l:wC)@.w:sepMMK%a7ASV00
     C0FLQG5  C2023 01 22fyIm2]cP*#(M,H5^bc#3YP`+/FFxS-f1?#tI-QQ48TJvp3S)F)CQV00
     C0FLQG5  C2023 01 228FR8x+Tl@M1D5+S@@EtDAE1t(WWL/IL;aJfm6mX4Im@#4`Hb^DaoV00
     C0FLQG5  C2023 01 22rjL*p5SBP;FQ1fD!3V6]JV:8pT:bI3,OqeJx;?DFPdDRw!BZ%xN=V00
     C0FLQG5 mC2023 01 22Hkq+Y%r?TiA?:?53=5'ZJY5lm:DB1l3(nMk['ZW!NAstrometryvV00
     C0FLQG5 mC2023 01 22jbn%Zu9*.NvB@DS21\Z)R-t3hUjC]A3y59YdRcs[9u#Y?1E*GY3yV00
     C0FLQG5 mC2023 01 22f.2/=WRx@gYYQewJ6EXJioH6O\5oD!Xa21;dQ;QdO))S*SbfKQ6tV00
     C0FLQG5 mC2023 01 22A?00h.eGox20b=:'/wd5Pn+]0L/;]\[GFIU2predacted;$0\hryV00
     C0FLQG5  C2023 01 22nfZWcEF:mRQ$X:?twVUDXS4)WDeFqen]yLGDL;8$lp\-50*ke)nxV00
     C0FLQG5  C2023 01 226\'n'Fnxe[eB(coCUsjK0wa@[,`T8/7?Wr?Kp+g+pdh3Yei,U:,!V00
     C0FLQG5  C2023 01 227BbQ:iISbK'Quclickfs[6]#Jph9xSs^/dqhere;Ag^DAFKF'VvnV00
     C0FLQG5  C2023 01 22)W^@Z.6!9T/f9PsiknV)9QOdR0tNX$_=D?%5u'NP6ni.DQ51ar$mV00
     C0FLQG5  C2023 01 22GhE1MD@2;?+@T!\07PSytp*c'l[+_\M^Gi1kdw,)(M]b(?s@ILsCV00
     C0FLQG5  C2023 01 22v$,#pAb/#imJ3Xw/Z7)=S26,_-%\)]BaScIfmcju`W*c7ul.O$x/V00
     C0FLQG5  C2023 01 2207jsM;a[$dQDW;476Onu8_p^my=E/M\%qU%yJ@ZN+1L;Tqjl(b@cV00
     C0FLQG5 mC2023 01 23]/Kek*\!d[K*oT5[Z,au:Xep$G2gBv]%+bjPlMQVbW;2ePmE6TAPV00
     C0FLQG5 mC2023 01 23g`!kb32*co/H1Ty$[*4C;O/ZLJ1m!R-Coi0SSY=!kqTIR_7Og_'!V00
     C0FLQG5 mC2023 01 23aSKL$a(1L2d%E'Z6R59*tQZNr?/sZDaKe$-g53SS8y5sigbfor)rV00
     C0FLQG5  C2023 01 23\4,d,%t%96explanation#-(fej-T#a-p:BC)0+f\AB+,G%e`pi;V00
     C0FLQG5 mC2023 01 23#q'h;hB?O)5CLX'6=mL^Hni.oItU?=pvhQ*@`#IC8moJN_gAeKCYV00
     C0FLQG5  C2023 01 23nRN=^6C.2e`PoZjr)4dP]4$wUbZwBOOJl/.),=orWFg76:t$X%bGV00
     C0FLQG5  C2023 01 23]_]G][C2dnXtV;s1R*1@A!4pluh9X'ppN-QLso@QCvG$JXVTCPPDV00
     C0FLQG5  C2023 01 23dFJ1Al$SstI'TNJH,GDSKHe(#b2-,wSWbN#f'w;+Sv_'QcO]eMj6V00
     C0FLQG5 mC2023 01 25v/rSq+`#\m4DA8diYaBVG#adRDOYh@UQ8bHwH%Y;nW6`vmOUTKeUV00
     C0FLQG5 mC2023 01 25NLtZJI9lCoC\WkYZKmO?J@%F3TVAYAw-HqgrteO.TaTgA%Zpx_6#V00
     C0FLQG5 mC2023 01 25_#1;Ej7vQ9G1uxPmN9G5Gi0I$bq[HNl=s6Togmp_Yl]c_eV-TWPdV00
     C0FLQG5 mC2023 01 25]SE;pvdDh[XjgE]^*p*B4iaDPZ9Z%UPOQnttOlR?3RWK6'UX;Et:V00
     C0FLQG5 KC2023 01 28.46882 09 35 54.49 +49 16 25.9    ~1SC7 21.3 RoNEOCP291
     C0FLQG5 KC2023 01 28.47580 09 35 53.49 +49 16 39.8    ~1SC7 21.9 RoNEOCP291
     C0FLQG5 KC2023 01 28.48279 09 35 52.60 +49 16 54.2    ~1SC7 22.2 RoNEOCP291

Station data:
(291) LPL/Spacewatch II  (N31.961669 W111.599905)  US/Arizona.  Observers J.
   V. Scotti, R. S. McMillan. 1.8-m f/2.7 reflector + CCD.
(V00) Kitt Peak-Bok  (N31.963125 W111.600190)  US/Arizona.  Observers T. A.
   Pruyne, B. M. Africano, E. J. Christensen, G. A. Farneth, D. C. Fuls, A.
   R. Gibbs, A. D. Grauer, H. Gröller, J. A. Johnson, R. A. Kowalski, S. M.
   Larson, G. J. Leonard, D. Rankin, R. L. Seaman, F. C. Shelly, K. W.
   Wierzchoś. 2.25-m reflector + CCD.

Orbital elements:  C0FLQG5
   Perihelion 2022 Nov 11.49919 +/- 0.0316 TT = 11:58:50 (JD 2459894.99919)
Epoch 2023 Jan 28.0 TT = JDT 2459972.5   Earth MOID: 0.0829      AutoNEOCP
M  34.41780324 +/- 0.12             (J2000 ecliptic)
n   0.44409606 +/- 0.00147          Peri.  296.45929 +/- 0.011
a   1.70144571 +/- 0.00375          Node   108.52208 +/- 0.012
e   0.4706022 +/- 0.00123           Incl.   22.59826 +/- 0.044
P   2.22/810.62d           H 22.76  G  0.15   U  8.4
q 0.90074158 +/- 0.00012    Q 2.50214985 +/- 0.00761
From 30 observations 2023 Jan. 22-28; mean residual 0".17
Residuals in arcseconds: 
230122 V00  .27+  .14+    230122 V00  .05+  .22-    230123 V00  .18+  .06+    
230122 V00  .15-  .07+    230122 V00  .13-  .05-    230123 V00  .07-  .39+    
230122 V00  .02+  .03+    230122 V00  .00   .02+    230123 V00  .35+  .50+    
230122 V00  .13-  .02-    230122 V00  .01-  .00     230125 V00  .12-  .21-    
230122 V00  .01+  .06-    230122 V00  .16-  .06-    230125 V00  .16-  .49+    
230122 V00  .06-  .09-    230123 V00  .06+  .10-    230125 V00  .00   .31-    
230122 V00  .00   .12+    230123 V00  .12+  .05+    230125 V00  .11+  .11-    
230122 V00  .22-  .15-    230123 V00  .05-  .15-    230128 291  .26+  .07-    
230122 V00  .04+  .02+    230123 V00  .03-  .14-    230128 291  .34-  .17-    
230122 V00  .07+  .09-    230123 V00  .09+  .04-    230128 291  .12+  .25+    

Ephemerides (geocentric):
Date (UTC) HH   RA             Dec           delta  r     elong  mag " sig PA
---- --------  ------------   ------------  ------ ------ -----  --- --------
2023 01 28 14  09 35 41.864   +49 20 19.05  .32494 1.2699 147.1 22.0 .061  39
2023 01 28 15  09 35 36.729   +49 21 44.74  .32530 1.2702 147.1 22.0 .065  40
2023 01 28 16  09 35 31.597   +49 23 10.14  .32566 1.2705 147.0 22.0 .070  40
2023 01 28 17  09 35 26.467   +49 24 35.24  .32601 1.2708 147.0 22.0 .074  41
2023 01 28 18  09 35 21.340   +49 26 00.06  .32637 1.2711 147.0 22.0 .078  41
2023 01 28 19  09 35 16.215   +49 27 24.59  .32673 1.2714 147.0 22.1 .083  42
2023 01 28 20  09 35 11.093   +49 28 48.83  .32709 1.2717 147.0 22.1 .088  42
2023 01 28 21  09 35 05.974   +49 30 12.78  .32744 1.2720 147.0 22.1 .092  42
2023 01 28 22  09 35 00.856   +49 31 36.44  .32780 1.2723 147.0 22.1 .097  43
2023 01 28 23  09 34 55.742   +49 32 59.82  .32816 1.2725 146.9 22.1 .102  43
2023 01 29 00  09 34 50.630   +49 34 22.91  .32852 1.2728 146.9 22.1 .107  43
2023 01 29 01  09 34 45.521   +49 35 45.71  .32888 1.2731 146.9 22.1 .111  43
2023 01 29 02  09 34 40.414   +49 37 08.23  .32924 1.2734 146.9 22.1 .116  43
2023 01 29 03  09 34 35.311   +49 38 30.46  .32960 1.2737 146.9 22.1 .121  44
2023 01 29 04  09 34 30.210   +49 39 52.41  .32996 1.2740 146.9 22.1 .126  44
2023 01 29 05  09 34 25.111   +49 41 14.08  .33032 1.2743 146.8 22.1 .132  44
2023 01 29 06  09 34 20.016   +49 42 35.46  .33068 1.2746 146.8 22.1 .137  44
2023 01 29 07  09 34 14.923   +49 43 56.56  .33104 1.2749 146.8 22.1 .142  44
2023 01 29 08  09 34 09.833   +49 45 17.38  .33140 1.2752 146.8 22.1 .147  44
2023 01 29 09  09 34 04.746   +49 46 37.92  .33176 1.2755 146.8 22.1 .152  44
2023 01 29 10  09 33 59.661   +49 47 58.18  .33212 1.2758 146.8 22.1 .158  44
2023 01 29 11  09 33 54.580   +49 49 18.16  .33248 1.2761 146.7 22.1 .163  44
2023 01 29 12  09 33 49.501   +49 50 37.87  .33284 1.2763 146.7 22.1 .169  44
2023 01 29 13  09 33 44.426   +49 51 57.29  .33321 1.2766 146.7 22.1 .174  44
2023 01 29 14  09 33 39.353   +49 53 16.44  .33357 1.2769 146.7 22.1 .180  44
2023 01 29 15  09 33 34.283   +49 54 35.31  .33393 1.2772 146.7 22.1 .185  44
2023 01 29 16  09 33 29.216   +49 55 53.90  .33429 1.2775 146.7 22.1 .191  44
2023 01 29 17  09 33 24.153   +49 57 12.22  .33466 1.2778 146.6 22.1 .197  44
2023 01 29 18  09 33 19.092   +49 58 30.26  .33502 1.2781 146.6 22.1 .203  44
2023 01 29 19  09 33 14.034   +49 59 48.03  .33538 1.2784 146.6 22.1 .209  44
2023 01 29 20  09 33 08.980   +50 01 05.53  .33575 1.2787 146.6 22.1 .214  44
2023 01 29 21  09 33 03.928   +50 02 22.75  .33611 1.2790 146.6 22.1 .220  44
2023 01 29 22  09 32 58.880   +50 03 39.70  .33647 1.2793 146.6 22.1 .226  44
2023 01 29 23  09 32 53.835   +50 04 56.38  .33684 1.2796 146.5 22.1 .232  44
2023 01 30 00  09 32 48.793   +50 06 12.79  .33720 1.2799 146.5 22.1 .239  44
2023 01 30 01  09 32 43.754   +50 07 28.92  .33757 1.2801 146.5 22.1 .245  44
2023 01 30 02  09 32 38.718   +50 08 44.79  .33793 1.2804 146.5 22.1 .251  44
2023 01 30 03  09 32 33.686   +50 10 00.39  .33830 1.2807 146.5 22.1 .257  44
2023 01 30 04  09 32 28.657   +50 11 15.72  .33866 1.2810 146.5 22.1 .263  44
2023 01 30 05  09 32 23.631   +50 12 30.78  .33903 1.2813 146.4 22.2 .270  44
2023 01 30 06  09 32 18.609   +50 13 45.58  .33939 1.2816 146.4 22.2 .276  44
2023 01 30 07  09 32 13.589   +50 15 00.11  .33976 1.2819 146.4 22.2 .283  44
2023 01 30 08  09 32 08.573   +50 16 14.37  .34012 1.2822 146.4 22.2 .289  44
2023 01 30 09  09 32 03.561   +50 17 28.36  .34049 1.2825 146.4 22.2 .296  44
2023 01 30 10  09 31 58.552   +50 18 42.10  .34086 1.2828 146.4 22.2 .302  44
2023 01 30 11  09 31 53.546   +50 19 55.56  .34122 1.2831 146.3 22.2 .309  44
2023 01 30 12  09 31 48.544   +50 21 08.77  .34159 1.2834 146.3 22.2 .316  44
2023 01 30 13  09 31 43.545   +50 22 21.71  .34196 1.2837 146.3 22.2 .323  43